Time,TemperatureF,DewpointF,PressureIn,WindDirection,WindDirectionDegrees,WindSpeedMPH,WindSpeedGustMPH,Humidity,HourlyPrecipIn,Conditions,Clouds,dailyrainin,SolarRadiationWatts/m^2,SoftwareType,DateUTC
2013-11-10 00:01:00,43.4,29.6,29.94,SSW,195,9.8,18.0,58,0.00,CLR,,0.00,0.0,WeatherDisplay:10.37,2013-11-10 05:01:00,
2013-11-10 00:03:00,43.4,29.6,29.94,South,188,8.2,12.7,58,0.00,CLR,,0.00,0.0,WeatherDisplay:10.37,2013-11-10 05:03:00,
2013-11-10 00:08:00,43.4,29.6,29.93,SW,219,9.0,18.4,58,0.00,CLR,,0.00,0.0,WeatherDisplay:10.37,2013-11-10 05:08:00,
2013-11-10 00:13:00,43.4,29.6,29.93,South,188,6.3,12.7,58,0.00,CLR,,0.00,0.0,WeatherDisplay:10.37,2013-11-10 05:13:00,
2013-11-10 00:18:00,43.4,29.6,29.93,SW,219,7.0,12.7,58,0.00,CLR,,0.00,0.0,WeatherDisplay:10.37,2013-11-10 05:18:00,
2013-11-10 00:23:00,43.5,29.7,29.93,SSW,201,7.1,11.5,58,0.00,CLR,,0.00,0.0,WeatherDisplay:10.37,2013-11-10 05:23:00,
2013-11-10 00:28:00,43.5,29.7,29.93,SSW,202,9.4,15.0,58,0.00,CLR,,0.00,0.0,WeatherDisplay:10.37,2013-11-10 05:28:00,
2013-11-10 00:33:00,43.5,29.7,29.93,SSW,202,6.3,16.1,58,0.00,CLR,,0.00,0.0,WeatherDisplay:10.37,2013-11-10 05:33:00,
2013-11-10 00:38:00,43.6,30.2,29.92,SSW,195,10.4,19.0,59,0.00,CLR,,0.00,0.0,WeatherDisplay:10.37,2013-11-10 05:38:00,
2013-11-10 00:43:00,43.4,30.8,29.92,South,181,7.4,12.7,61,0.00,CLR,,0.00,0.0,WeatherDisplay:10.37,2013-11-10 05:43:00,
2013-11-10 00:48:00,43.3,30.7,29.92,SSW,192,8.4,16.1,61,0.00,CLR,,0.00,0.0,WeatherDisplay:10.37,2013-11-10 05:48:00,
2013-11-10 00:53:00,43.3,30.7,29.92,South,187,6.6,11.5,61,0.00,CLR,,0.00,0.0,WeatherDisplay:10.37,2013-11-10 05:53:00,
2013-11-10 00:58:00,43.3,30.7,29.92,South,169,8.2,15.0,61,0.00,CLR,,0.00,0.0,WeatherDisplay:10.37,2013-11-10 05:58:00,
2013-11-10 01:03:00,43.2,31.1,29.91,SSW,195,4.8,9.2,62,0.00,CLR,,0.00,0.0,WeatherDisplay:10.37,2013-11-10 06:03:00,
2013-11-10 01:08:00,43.0,31.3,29.91,SSW,192,5.5,9.2,63,0.00,CLR,,0.00,0.0,WeatherDisplay:10.37,2013-11-10 06:08:00,
2013-11-10 01:13:00,42.8,31.8,29.90,SSW,196,3.5,11.5,65,0.00,CLR,,0.00,0.0,WeatherDisplay:10.37,2013-11-10 06:13:00,
2013-11-10 01:18:00,42.7,31.7,29.90,South,184,3.5,5.8,65,0.00,CLR,,0.00,0.0,WeatherDisplay:10.37,2013-11-10 06:18:00,
2013-11-10 01:23:00,42.6,31.7,29.89,South,191,5.8,9.2,65,0.00,CLR,,0.00,0.0,WeatherDisplay:10.37,2013-11-10 06:23:00,
2013-11-10 01:28:00,42.6,31.3,29.89,SSW,203,8.7,16.1,64,0.00,CLR,,0.00,0.0,WeatherDisplay:10.37,2013-11-10 06:28:00,
2013-11-10 01:34:00,42.7,31.4,29.89,South,187,3.7,8.1,64,0.00,CLR,,0.00,0.0,WeatherDisplay:10.37,2013-11-10 06:34:00,
2013-11-10 01:39:00,42.7,32.1,29.89,SSW,199,6.1,12.7,66,0.00,CLR,,0.00,0.0,WeatherDisplay:10.37,2013-11-10 06:39:00,
2013-11-10 01:44:00,42.7,32.1,29.89,SSW,196,3.3,9.0,66,0.00,CLR,,0.00,0.0,WeatherDisplay:10.37,2013-11-10 06:44:00,
2013-11-10 01:49:00,42.5,32.3,29.89,SSW,196,5.2,9.2,67,0.00,CLR,,0.00,0.0,WeatherDisplay:10.37,2013-11-10 06:49:00,
2013-11-10 01:54:00,42.4,32.2,29.89,SSW,195,4.8,11.5,67,0.00,CLR,,0.00,0.0,WeatherDisplay:10.37,2013-11-10 06:54:00,
2013-11-10 01:59:00,42.4,32.2,29.89,South,191,4.6,11.5,67,0.00,CLR,,0.00,0.0,WeatherDisplay:10.37,2013-11-10 06:59:00,
2013-11-10 02:04:00,42.4,32.2,29.89,SSW,209,10.3,13.0,67,0.00,CLR,,0.00,0.0,WeatherDisplay:10.37,2013-11-10 07:04:00,
2013-11-10 02:09:00,42.4,32.6,29.88,SSW,204,5.8,9.2,68,0.00,CLR,,0.00,0.0,WeatherDisplay:10.37,2013-11-10 07:09:00,
2013-11-10 02:14:00,42.4,32.6,29.88,SSW,193,4.4,11.5,68,0.00,CLR,,0.00,0.0,WeatherDisplay:10.37,2013-11-10 07:14:00,
2013-11-10 02:19:00,42.5,32.7,29.88,SSW,206,4.9,11.5,68,0.00,CLR,,0.00,0.0,WeatherDisplay:10.37,2013-11-10 07:19:00,
2013-11-10 02:24:00,42.6,32.8,29.88,South,179,1.7,9.2,68,0.00,CLR,,0.00,0.0,WeatherDisplay:10.37,2013-11-10 07:24:00,
2013-11-10 02:29:00,42.5,32.7,29.88,SSE,157,4.9,5.8,68,0.00,CLR,,0.00,0.0,WeatherDisplay:10.37,2013-11-10 07:29:00,
2013-11-10 02:34:00,42.5,33.0,29.87,South,188,5.1,14.0,69,0.00,CLR,,0.00,0.0,WeatherDisplay:10.37,2013-11-10 07:34:00,
2013-11-10 02:39:00,42.5,32.7,29.88,SSW,198,4.6,6.9,68,0.00,CLR,,0.00,0.0,WeatherDisplay:10.37,2013-11-10 07:39:00,
2013-11-10 02:44:00,42.5,32.7,29.87,SSW,203,4.7,18.4,68,0.00,CLR,,0.00,0.0,WeatherDisplay:10.37,2013-11-10 07:44:00,
2013-11-10 02:49:00,42.6,33.1,29.86,South,191,8.4,12.7,69,0.00,CLR,,0.00,0.0,WeatherDisplay:10.37,2013-11-10 07:49:00,
2013-11-10 02:54:00,42.5,33.0,29.86,South,189,5.8,9.2,69,0.00,CLR,,0.00,0.0,WeatherDisplay:10.37,2013-11-10 07:54:00,
2013-11-10 02:59:00,42.5,32.7,29.86,SSW,194,5.9,9.2,68,0.00,CLR,,0.00,0.0,WeatherDisplay:10.37,2013-11-10 07:59:00,
2013-11-10 03:04:00,42.6,32.8,29.86,SSW,194,5.8,11.5,68,0.00,CLR,,0.00,0.0,WeatherDisplay:10.37,2013-11-10 08:04:00,
2013-11-10 03:09:00,42.6,32.8,29.85,South,190,5.0,9.2,68,0.00,CLR,,0.00,0.0,WeatherDisplay:10.37,2013-11-10 08:09:00,
2013-11-10 03:14:00,42.6,32.4,29.85,SSW,200,6.5,11.5,67,0.00,CLR,,0.00,0.0,WeatherDisplay:10.37,2013-11-10 08:14:00,
2013-11-10 03:19:00,42.7,32.1,29.85,SSW,198,7.1,11.5,66,0.00,CLR,,0.00,0.0,WeatherDisplay:10.37,2013-11-10 08:19:00,
2013-11-10 03:24:00,42.9,32.3,29.85,SSE,160,5.4,12.0,66,0.00,CLR,,0.00,0.0,WeatherDisplay:10.37,2013-11-10 08:24:00,
2013-11-10 03:29:00,43.0,32.4,29.85,SSW,200,2.6,8.1,66,0.00,CLR,,0.00,0.0,WeatherDisplay:10.37,2013-11-10 08:29:00,
2013-11-10 03:34:00,43.0,32.4,29.85,SSW,201,6.6,10.4,66,0.00,CLR,,0.00,0.0,WeatherDisplay:10.37,2013-11-10 08:34:00,
2013-11-10 03:39:00,43.1,32.1,29.85,SSW,205,6.8,12.0,65,0.00,CLR,,0.00,0.0,WeatherDisplay:10.37,2013-11-10 08:39:00,
2013-11-10 03:44:00,43.2,31.8,29.85,SW,218,7.1,12.7,64,0.00,CLR,,0.00,0.0,WeatherDisplay:10.37,2013-11-10 08:44:00,
2013-11-10 03:49:00,43.2,31.8,29.85,SSW,208,7.3,12.7,64,0.00,CLR,,0.00,0.0,WeatherDisplay:10.37,2013-11-10 08:49:00,
2013-11-10 03:54:00,43.2,31.8,29.85,South,171,6.9,12.7,64,0.00,CLR,,0.00,0.0,WeatherDisplay:10.37,2013-11-10 08:54:00,
2013-11-10 03:59:00,43.2,31.8,29.85,SSW,196,7.7,13.8,64,0.00,CLR,,0.00,0.0,WeatherDisplay:10.37,2013-11-10 08:59:00,
2013-11-10 04:04:00,43.2,31.8,29.85,SSW,195,7.6,10.4,64,0.00,CLR,,0.00,0.0,WeatherDisplay:10.37,2013-11-10 09:04:00,
2013-11-10 04:09:00,43.2,31.8,29.85,SSW,198,4.8,11.0,64,0.00,CLR,,0.00,0.0,WeatherDisplay:10.37,2013-11-10 09:09:00,
2013-11-10 04:14:00,43.2,31.8,29.85,SSW,198,4.3,8.1,64,0.00,CLR,,0.00,0.0,WeatherDisplay:10.37,2013-11-10 09:14:00,
2013-11-10 04:19:00,43.1,31.7,29.85,SSE,164,4.6,9.2,64,0.00,CLR,,0.00,0.0,WeatherDisplay:10.37,2013-11-10 09:19:00,
2013-11-10 04:24:00,43.1,31.7,29.84,SSW,209,10.4,16.1,64,0.00,CLR,,0.00,0.0,WeatherDisplay:10.37,2013-11-10 09:24:00,
2013-11-10 04:29:00,43.0,31.6,29.84,South,181,7.2,11.5,64,0.00,CLR,,0.00,0.0,WeatherDisplay:10.37,2013-11-10 09:29:00,
2013-11-10 04:34:00,42.9,31.6,29.84,SSW,207,5.4,8.1,64,0.00,CLR,,0.00,0.0,WeatherDisplay:10.37,2013-11-10 09:34:00,
2013-11-10 04:39:00,42.9,31.9,29.84,South,190,5.6,9.2,65,0.00,CLR,,0.00,0.0,WeatherDisplay:10.37,2013-11-10 09:39:00,
2013-11-10 04:44:00,42.9,31.6,29.84,South,184,5.4,10.4,64,0.00,CLR,,0.00,0.0,WeatherDisplay:10.37,2013-11-10 09:44:00,
2013-11-10 04:49:00,43.0,32.0,29.84,SSW,198,3.4,6.9,65,0.00,CLR,,0.00,0.0,WeatherDisplay:10.37,2013-11-10 09:49:00,
2013-11-10 04:54:00,43.1,32.1,29.84,SSE,154,1.8,11.5,65,0.00,CLR,,0.00,0.0,WeatherDisplay:10.37,2013-11-10 09:54:00,
2013-11-10 04:59:00,43.1,32.1,29.84,SSW,193,4.4,8.1,65,0.00,CLR,,0.00,0.0,WeatherDisplay:10.37,2013-11-10 09:59:00,
2013-11-10 05:04:00,43.1,31.7,29.84,SSW,197,7.3,11.5,64,0.00,CLR,,0.00,0.0,WeatherDisplay:10.37,2013-11-10 10:04:00,
2013-11-10 05:09:00,43.1,31.7,29.83,South,186,4.9,6.9,64,0.00,CLR,,0.00,0.0,WeatherDisplay:10.37,2013-11-10 10:09:00,
2013-11-10 05:14:00,42.9,31.9,29.84,South,190,7.1,10.4,65,0.00,CLR,,0.00,0.0,WeatherDisplay:10.37,2013-11-10 10:14:00,
2013-11-10 05:19:00,42.8,31.8,29.83,South,187,4.2,13.8,65,0.00,CLR,,0.00,0.0,WeatherDisplay:10.37,2013-11-10 10:19:00,
2013-11-10 05:24:00,42.8,31.8,29.83,SSW,197,3.5,8.1,65,0.00,CLR,,0.00,0.0,WeatherDisplay:10.37,2013-11-10 10:24:00,
2013-11-10 05:29:00,42.7,31.7,29.83,South,182,6.3,13.8,65,0.00,CLR,,0.00,0.0,WeatherDisplay:10.37,2013-11-10 10:29:00,
2013-11-10 05:34:00,42.7,31.7,29.83,South,188,4.4,9.2,65,0.00,CLR,,0.00,0.0,WeatherDisplay:10.37,2013-11-10 10:34:00,
2013-11-10 05:36:00,42.7,31.7,29.83,SSW,207,4.5,9.2,65,0.00,CLR,,0.00,0.0,WeatherDisplay:10.37,2013-11-10 10:36:00,
2013-11-10 05:41:00,42.6,31.7,29.83,SSW,194,5.3,8.1,65,0.00,CLR,,0.00,0.0,WeatherDisplay:10.37,2013-11-10 10:41:00,
2013-11-10 05:46:00,42.4,31.8,29.83,South,189,5.3,9.2,66,0.00,CLR,,0.00,0.0,WeatherDisplay:10.37,2013-11-10 10:46:00,
2013-11-10 05:51:00,42.2,31.6,29.83,South,190,3.3,5.8,66,0.00,CLR,,0.00,0.0,WeatherDisplay:10.37,2013-11-10 10:51:00,
2013-11-10 05:56:00,42.0,31.8,29.83,South,188,3.0,6.9,67,0.00,CLR,,0.00,0.0,WeatherDisplay:10.37,2013-11-10 10:56:00,
2013-11-10 06:01:00,42.0,31.8,29.83,South,189,4.0,7.0,67,0.00,CLR,,0.00,0.0,WeatherDisplay:10.37,2013-11-10 11:01:00,
2013-11-10 06:06:00,42.1,31.9,29.82,SSW,200,4.6,8.1,67,0.00,CLR,,0.00,0.0,WeatherDisplay:10.37,2013-11-10 11:06:00,
2013-11-10 06:11:00,42.0,31.8,29.82,South,188,1.9,3.5,67,0.00,CLR,,0.00,0.0,WeatherDisplay:10.37,2013-11-10 11:11:00,
2013-11-10 06:16:00,41.9,31.7,29.83,South,186,7.1,9.2,67,0.00,CLR,,0.00,0.0,WeatherDisplay:10.37,2013-11-10 11:16:00,
2013-11-10 06:21:00,41.7,31.5,29.83,South,186,5.0,8.1,67,0.00,CLR,,0.00,0.0,WeatherDisplay:10.37,2013-11-10 11:21:00,
2013-11-10 06:26:00,41.8,32.0,29.83,SSW,201,2.7,3.5,68,0.00,CLR,,0.00,0.0,WeatherDisplay:10.37,2013-11-10 11:26:00,
2013-11-10 06:31:00,41.9,32.1,29.83,South,175,3.8,8.1,68,0.00,CLR,,0.00,0.0,WeatherDisplay:10.37,2013-11-10 11:31:00,
2013-11-10 06:36:00,42.1,31.9,29.82,South,180,6.8,11.5,67,0.00,CLR,,0.00,0.0,WeatherDisplay:10.37,2013-11-10 11:36:00,
2013-11-10 06:41:00,42.4,32.6,29.83,SSW,203,3.5,4.6,68,0.00,CLR,,0.00,0.0,WeatherDisplay:10.37,2013-11-10 11:41:00,
2013-11-10 06:46:00,42.5,32.7,29.82,SSW,192,5.7,11.5,68,0.00,CLR,,0.00,0.0,WeatherDisplay:10.37,2013-11-10 11:46:00,
2013-11-10 06:51:00,42.7,32.5,29.83,SSW,207,6.3,11.5,67,0.00,CLR,,0.00,13.6,WeatherDisplay:10.37,2013-11-10 11:51:00,
2013-11-10 06:56:00,42.8,32.6,29.83,SSW,198,6.1,8.1,67,0.00,OVC,,0.00,13.6,WeatherDisplay:10.37,2013-11-10 11:56:00,
2013-11-10 07:01:00,43.0,32.8,29.83,South,175,5.4,10.4,67,0.00,OVC,,0.00,5.7,WeatherDisplay:10.37,2013-11-10 12:01:00,
2013-11-10 07:06:00,43.1,32.5,29.83,SW,222,8.0,10.4,66,0.00,OVC,,0.00,15.8,WeatherDisplay:10.37,2013-11-10 12:06:00,
2013-11-10 07:11:00,43.3,33.1,29.83,SSW,203,4.6,8.1,67,0.00,OVC,,0.00,12.4,WeatherDisplay:10.37,2013-11-10 12:11:00,
2013-11-10 07:16:00,43.3,33.4,29.84,SW,215,3.7,6.9,68,0.00,OVC,,0.00,0.0,WeatherDisplay:10.37,2013-11-10 12:16:00,
2013-11-10 07:21:00,43.1,34.0,29.85,SW,218,4.2,4.6,70,0.01,RA,,0.01,0.0,WeatherDisplay:10.37,2013-11-10 12:21:00,
2013-11-10 07:26:00,42.8,34.4,29.86,West,261,4.8,6.9,72,0.01,RA,,0.01,5.7,WeatherDisplay:10.37,2013-11-10 12:26:00,
2013-11-10 07:31:00,42.5,34.5,29.86,WSW,255,5.3,6.9,73,0.01,CLR,,0.01,5.7,WeatherDisplay:10.37,2013-11-10 12:31:00,
2013-11-10 07:36:00,42.3,35.3,29.87,West,259,3.5,4.6,76,0.01,OVC,,0.01,5.7,WeatherDisplay:10.37,2013-11-10 12:36:00,
2013-11-10 07:41:00,42.2,35.2,29.87,West,269,1.6,3.5,76,0.01,OVC,,0.01,13.6,WeatherDisplay:10.37,2013-11-10 12:41:00,
2013-11-10 07:46:00,42.0,36.0,29.87,West,269,0.0,1.2,79,0.01,OVC,,0.01,29.4,WeatherDisplay:10.37,2013-11-10 12:46:00,
2013-11-10 07:51:00,41.9,35.2,29.86,West,269,1.2,2.3,77,0.01,CLR,,0.01,45.2,WeatherDisplay:10.37,2013-11-10 12:51:00,
2013-11-10 07:56:00,41.8,34.8,29.86,West,262,2.4,3.5,76,0.01,CLR,,0.01,59.9,WeatherDisplay:10.37,2013-11-10 12:56:00,
2013-11-10 08:01:00,41.8,35.1,29.86,WSW,246,0.5,3.5,77,0.01,CLR,,0.01,73.5,WeatherDisplay:10.37,2013-11-10 13:01:00,
2013-11-10 08:06:00,41.9,35.2,29.86,WSW,246,1.1,2.3,77,0.01,CLR,,0.01,70.1,WeatherDisplay:10.37,2013-11-10 13:06:00,
2013-11-10 08:11:00,42.0,35.3,29.85,SW,227,2.4,4.6,77,0.01,FEW,,0.01,70.1,WeatherDisplay:10.37,2013-11-10 13:11:00,
2013-11-10 08:16:00,42.2,35.5,29.85,SW,221,0.2,2.3,77,0.01,FEW,,0.01,75.7,WeatherDisplay:10.37,2013-11-10 13:16:00,
2013-11-10 08:21:00,42.4,35.4,29.85,SW,221,0.3,1.2,76,0.00,SCT,,0.01,67.8,WeatherDisplay:10.37,2013-11-10 13:21:00,
2013-11-10 08:26:00,42.5,34.8,29.85,SW,215,0.0,3.5,74,0.00,BKN,,0.01,37.3,WeatherDisplay:10.37,2013-11-10 13:26:00,
2013-11-10 08:31:00,42.6,34.9,29.85,SSW,192,0.0,3.5,74,0.00,OVC,,0.01,31.6,WeatherDisplay:10.37,2013-11-10 13:31:00,
2013-11-10 08:36:00,42.6,34.9,29.85,SSW,192,0.4,3.0,74,0.00,BKN,,0.01,61.0,WeatherDisplay:10.37,2013-11-10 13:36:00,
2013-11-10 08:41:00,42.7,34.6,29.85,South,188,2.3,6.9,73,0.00,BKN,,0.01,75.7,WeatherDisplay:10.37,2013-11-10 13:41:00,
2013-11-10 08:46:00,42.8,34.7,29.84,South,186,3.6,11.5,73,0.00,BKN,,0.01,71.2,WeatherDisplay:10.37,2013-11-10 13:46:00,
2013-11-10 08:52:00,42.9,34.5,29.83,South,186,3.4,10.4,72,0.00,BKN,,0.01,81.4,WeatherDisplay:10.37,2013-11-10 13:52:00,
2013-11-10 08:57:00,42.9,34.5,29.84,South,182,3.2,4.6,72,0.00,BKN,,0.01,89.3,WeatherDisplay:10.37,2013-11-10 13:57:00,
2013-11-10 09:02:00,43.1,34.3,29.84,South,182,0.6,2.3,71,0.00,SCT,,0.01,127.7,WeatherDisplay:10.37,2013-11-10 14:02:00,
2013-11-10 09:07:00,43.3,34.9,29.84,South,182,0.3,2.3,72,0.00,FEW,,0.01,176.3,WeatherDisplay:10.37,2013-11-10 14:07:00,
2013-11-10 09:12:00,43.6,35.2,29.84,South,182,1.8,3.5,72,0.00,FEW,,0.01,168.4,WeatherDisplay:10.37,2013-11-10 14:12:00,
2013-11-10 09:17:00,44.0,35.2,29.84,South,185,1.5,6.9,71,0.00,SCT,,0.01,172.9,WeatherDisplay:10.37,2013-11-10 14:17:00,
2013-11-10 09:22:00,44.3,35.5,29.83,South,184,0.4,3.5,71,0.00,SCT,,0.01,178.5,WeatherDisplay:10.37,2013-11-10 14:22:00,
2013-11-10 09:27:00,44.5,35.0,29.83,South,184,0.3,1.2,69,0.00,SCT,,0.01,170.6,WeatherDisplay:10.37,2013-11-10 14:27:00,
2013-11-10 09:32:00,44.7,35.1,29.83,South,184,0.9,2.3,69,0.00,SCT,,0.01,151.4,WeatherDisplay:10.37,2013-11-10 14:32:00,
2013-11-10 09:37:00,44.9,35.7,29.83,South,186,3.3,4.6,70,0.00,BKN,,0.01,143.5,WeatherDisplay:10.37,2013-11-10 14:37:00,
2013-11-10 09:42:00,45.0,35.1,29.82,South,186,1.8,4.6,68,0.00,BKN,,0.01,162.7,WeatherDisplay:10.37,2013-11-10 14:42:00,
2013-11-10 09:47:00,45.1,35.9,29.82,South,190,4.3,5.0,70,0.00,BKN,,0.01,165.0,WeatherDisplay:10.37,2013-11-10 14:47:00,
2013-11-10 09:52:00,45.3,35.7,29.82,SSW,192,1.8,3.5,69,0.00,BKN,,0.01,175.2,WeatherDisplay:10.37,2013-11-10 14:52:00,
2013-11-10 09:57:00,45.4,35.8,29.82,SSW,197,3.6,4.6,69,0.00,BKN,,0.01,144.6,WeatherDisplay:10.37,2013-11-10 14:57:00,
2013-11-10 10:02:00,45.5,35.5,29.82,SSW,202,4.5,8.0,68,0.00,BKN,,0.01,118.7,WeatherDisplay:10.37,2013-11-10 15:02:00,
2013-11-10 10:07:00,45.6,35.6,29.82,South,187,5.9,11.5,68,0.00,BKN,,0.01,107.3,WeatherDisplay:10.37,2013-11-10 15:07:00,
2013-11-10 10:12:00,45.6,36.0,29.82,SSW,195,6.1,10.4,69,0.00,BKN,,0.01,123.2,WeatherDisplay:10.37,2013-11-10 15:12:00,
2013-11-10 10:17:00,45.6,35.6,29.83,South,191,5.8,8.0,68,0.00,BKN,,0.01,109.6,WeatherDisplay:10.37,2013-11-10 15:17:00,
2013-11-10 10:22:00,45.6,35.6,29.82,SSW,192,5.8,11.5,68,0.00,OVC,,0.01,93.8,WeatherDisplay:10.37,2013-11-10 15:22:00,
2013-11-10 10:27:00,45.5,35.5,29.82,SSW,193,4.5,8.1,68,0.00,OVC,,0.01,70.1,WeatherDisplay:10.37,2013-11-10 15:27:00,
2013-11-10 10:32:00,45.4,35.5,29.82,South,188,4.6,6.9,68,0.00,OVC,,0.01,65.5,WeatherDisplay:10.37,2013-11-10 15:32:00,
2013-11-10 10:37:00,45.4,35.5,29.82,South,189,3.7,10.4,68,0.00,OVC,,0.01,73.5,WeatherDisplay:10.37,2013-11-10 15:37:00,
2013-11-10 10:42:00,45.3,35.4,29.81,South,190,2.9,7.0,68,0.00,OVC,,0.01,85.9,WeatherDisplay:10.37,2013-11-10 15:42:00,
2013-11-10 10:47:00,45.3,35.4,29.81,South,188,0.1,1.2,68,0.00,OVC,,0.01,93.8,WeatherDisplay:10.37,2013-11-10 15:47:00,
2013-11-10 10:52:00,45.4,35.8,29.81,South,186,3.7,4.6,69,0.00,OVC,,0.01,123.2,WeatherDisplay:10.37,2013-11-10 15:52:00,
2013-11-10 10:57:00,45.6,36.0,29.81,South,186,0.1,1.2,69,0.00,BKN,,0.01,117.5,WeatherDisplay:10.37,2013-11-10 15:57:00,
2013-11-10 11:02:00,45.8,36.6,29.81,South,186,0.0,1.2,70,0.00,OVC,,0.01,102.8,WeatherDisplay:10.37,2013-11-10 16:02:00,
2013-11-10 11:07:00,45.9,36.3,29.81,South,186,2.8,5.8,69,0.00,OVC,,0.01,89.3,WeatherDisplay:10.37,2013-11-10 16:07:00,
2013-11-10 11:12:00,45.9,36.3,29.81,South,186,3.1,3.5,69,0.00,OVC,,0.01,67.8,WeatherDisplay:10.37,2013-11-10 16:12:00,
2013-11-10 11:17:00,45.8,36.2,29.81,South,190,2.1,4.6,69,0.00,OVC,,0.01,49.7,WeatherDisplay:10.37,2013-11-10 16:17:00,
2013-11-10 11:23:00,45.7,36.1,29.81,SSW,200,1.0,3.5,69,0.00,OVC,,0.01,59.9,WeatherDisplay:10.37,2013-11-10 16:23:00,
2013-11-10 11:28:00,45.8,36.2,29.81,SSW,205,1.7,2.3,69,0.00,OVC,,0.01,79.1,WeatherDisplay:10.37,2013-11-10 16:28:00,
2013-11-10 11:33:00,45.9,37.0,29.81,SSW,208,2.7,3.5,71,0.00,OVC,,0.01,70.1,WeatherDisplay:10.37,2013-11-10 16:33:00,
2013-11-10 11:38:00,45.9,37.0,29.79,SSW,207,2.5,4.6,71,0.00,OVC,,0.01,78.0,WeatherDisplay:10.37,2013-11-10 16:38:00,
2013-11-10 11:43:00,45.9,37.7,29.80,SSW,207,1.3,3.5,73,0.00,OVC,,0.01,87.0,WeatherDisplay:10.37,2013-11-10 16:43:00,
2013-11-10 11:48:00,45.8,37.3,29.80,SSW,208,3.7,4.6,72,0.00,OVC,,0.01,79.1,WeatherDisplay:10.37,2013-11-10 16:48:00,
2013-11-10 11:53:00,45.8,37.3,29.80,SSW,209,4.1,6.0,72,0.00,OVC,,0.01,83.6,WeatherDisplay:10.37,2013-11-10 16:53:00,
2013-11-10 11:58:00,45.7,37.5,29.80,SSW,209,2.9,4.6,73,0.00,OVC,,0.01,91.5,WeatherDisplay:10.37,2013-11-10 16:58:00,
2013-11-10 12:03:00,45.7,37.5,29.79,SSW,205,3.6,7.0,73,0.00,OVC,,0.01,110.7,WeatherDisplay:10.37,2013-11-10 17:03:00,
2013-11-10 12:08:00,45.8,37.6,29.78,SSW,200,3.7,6.9,73,0.00,OVC,,0.01,133.3,WeatherDisplay:10.37,2013-11-10 17:08:00,
2013-11-10 12:13:00,46.0,38.2,29.79,SSW,197,2.8,4.6,74,0.00,BKN,,0.01,144.6,WeatherDisplay:10.37,2013-11-10 17:13:00,
2013-11-10 12:18:00,46.1,37.6,29.79,SSW,202,0.4,2.3,72,0.00,BKN,,0.01,136.7,WeatherDisplay:10.37,2013-11-10 17:18:00,
2013-11-10 12:23:00,46.2,37.7,29.79,SSW,209,0.8,2.3,72,0.00,OVC,,0.01,131.1,WeatherDisplay:10.37,2013-11-10 17:23:00,
2013-11-10 12:28:00,46.2,37.7,29.79,SSW,209,2.5,3.5,72,0.00,OVC,,0.01,93.8,WeatherDisplay:10.37,2013-11-10 17:28:00,
2013-11-10 12:33:00,46.2,37.7,29.79,SSW,209,2.7,4.0,72,0.00,OVC,,0.01,75.7,WeatherDisplay:10.37,2013-11-10 17:33:00,
2013-11-10 12:38:00,46.2,38.0,29.79,SSW,209,2.4,3.5,73,0.00,OVC,,0.01,65.5,WeatherDisplay:10.37,2013-11-10 17:38:00,
2013-11-10 12:43:00,46.1,37.6,29.79,SSW,209,3.2,4.0,72,0.00,OVC,,0.01,109.6,WeatherDisplay:10.37,2013-11-10 17:43:00,
2013-11-10 12:48:00,46.3,38.1,29.78,SSW,209,0.3,3.5,73,0.00,OVC,,0.01,117.5,WeatherDisplay:10.37,2013-11-10 17:48:00,
2013-11-10 12:53:00,46.4,38.2,29.78,SSW,209,2.1,4.0,73,0.00,OVC,,0.01,123.2,WeatherDisplay:10.37,2013-11-10 17:53:00,
2013-11-10 12:58:00,46.5,38.3,29.78,SSW,209,2.8,3.5,73,0.00,OVC,,0.01,139.0,WeatherDisplay:10.37,2013-11-10 17:58:00,
2013-11-10 13:03:00,46.7,37.8,29.78,SSW,211,3.8,5.8,71,0.00,OVC,,0.01,123.2,WeatherDisplay:10.37,2013-11-10 18:03:00,
2013-11-10 13:08:00,46.9,37.6,29.78,SW,219,4.5,5.8,70,0.00,BKN,,0.01,143.5,WeatherDisplay:10.37,2013-11-10 18:08:00,
2013-11-10 13:13:00,47.1,37.4,29.77,SW,225,4.0,4.0,69,0.00,OVC,,0.01,128.8,WeatherDisplay:10.37,2013-11-10 18:13:00,
2013-11-10 13:18:00,47.4,37.0,29.77,West,263,5.8,8.1,67,0.00,OVC,,0.01,125.4,WeatherDisplay:10.37,2013-11-10 18:18:00,
2013-11-10 13:23:00,47.6,37.2,29.77,West,265,4.7,6.9,67,0.00,OVC,,0.01,109.6,WeatherDisplay:10.37,2013-11-10 18:23:00,
2013-11-10 13:28:00,47.7,36.9,29.77,West,270,4.0,5.0,66,0.00,OVC,,0.01,125.4,WeatherDisplay:10.37,2013-11-10 18:28:00,
2013-11-10 13:33:00,47.8,36.6,29.77,WSW,245,5.7,6.9,65,0.00,OVC,,0.01,131.1,WeatherDisplay:10.37,2013-11-10 18:33:00,
2013-11-10 13:38:00,47.9,35.9,29.77,West,269,5.0,8.0,63,0.00,BKN,,0.01,128.8,WeatherDisplay:10.37,2013-11-10 18:38:00,
2013-11-10 13:43:00,48.1,36.1,29.77,West,266,5.6,6.0,63,0.00,OVC,,0.01,102.8,WeatherDisplay:10.37,2013-11-10 18:43:00,
2013-11-10 13:48:00,48.1,36.1,29.78,West,277,6.5,6.9,63,0.00,OVC,,0.01,118.7,WeatherDisplay:10.37,2013-11-10 18:48:00,
2013-11-10 13:53:00,48.2,36.2,29.78,West,279,4.6,5.8,63,0.00,OVC,,0.01,107.3,WeatherDisplay:10.37,2013-11-10 18:53:00,
2013-11-10 13:58:00,48.4,36.8,29.78,WNW,283,3.9,5.8,64,0.00,OVC,,0.01,120.9,WeatherDisplay:10.37,2013-11-10 18:58:00,
2013-11-10 14:03:00,48.5,36.5,29.78,West,279,5.8,8.1,63,0.00,OVC,,0.01,107.3,WeatherDisplay:10.37,2013-11-10 19:03:00,
2013-11-10 14:08:00,48.5,36.5,29.78,West,276,3.6,5.8,63,0.00,OVC,,0.01,47.5,WeatherDisplay:10.37,2013-11-10 19:08:00,
2013-11-10 14:13:00,48.5,36.9,29.79,WNW,285,6.5,9.2,64,0.00,OVC,,0.01,29.4,WeatherDisplay:10.37,2013-11-10 19:13:00,
2013-11-10 14:18:00,48.2,36.6,29.79,WNW,294,4.8,10.4,64,0.00,OVC,,0.01,73.5,WeatherDisplay:10.37,2013-11-10 19:18:00,
2013-11-10 14:23:00,48.1,37.3,29.79,WNW,300,2.1,3.5,66,0.00,BKN,,0.01,172.9,WeatherDisplay:10.37,2013-11-10 19:23:00,
2013-11-10 14:28:00,48.2,37.0,29.79,WNW,296,7.9,11.5,65,0.00,BKN,,0.01,120.9,WeatherDisplay:10.37,2013-11-10 19:28:00,
2013-11-10 14:33:00,48.3,36.7,29.80,WNW,296,3.6,4.6,64,0.00,OVC,,0.01,36.2,WeatherDisplay:10.37,2013-11-10 19:33:00,
2013-11-10 14:38:00,48.1,37.7,29.80,WNW,296,1.8,3.5,67,0.00,OVC,,0.01,99.4,WeatherDisplay:10.37,2013-11-10 19:38:00,
2013-11-10 14:43:00,47.8,38.8,29.80,WNW,296,3.4,4.6,71,0.00,OVC,,0.01,87.0,WeatherDisplay:10.37,2013-11-10 19:43:00,
2013-11-10 14:48:00,47.7,38.8,29.80,WNW,296,3.1,3.5,71,0.00,OVC,,0.01,94.9,WeatherDisplay:10.37,2013-11-10 19:48:00,
2013-11-10 14:53:00,47.6,38.3,29.80,WNW,296,4.0,8.1,70,0.00,OVC,,0.01,70.1,WeatherDisplay:10.37,2013-11-10 19:53:00,
2013-11-10 14:58:00,47.6,38.3,29.80,WNW,296,1.5,3.5,70,0.00,OVC,,0.01,33.9,WeatherDisplay:10.37,2013-11-10 19:58:00,
2013-11-10 15:03:00,47.4,37.4,29.80,WNW,296,3.0,5.0,68,0.00,OVC,,0.01,39.5,WeatherDisplay:10.37,2013-11-10 20:03:00,
2013-11-10 15:08:00,47.3,37.3,29.80,WNW,296,2.0,3.5,68,0.00,CLR,,0.01,29.4,WeatherDisplay:10.37,2013-11-10 20:08:00,
2013-11-10 15:13:00,47.2,37.2,29.81,WNW,292,5.4,6.0,68,0.00,CLR,,0.01,31.6,WeatherDisplay:10.37,2013-11-10 20:13:00,
2013-11-10 15:18:00,47.0,37.7,29.81,WNW,295,6.0,6.9,70,0.00,CLR,,0.01,39.5,WeatherDisplay:10.37,2013-11-10 20:18:00,
2013-11-10 15:23:00,46.9,37.3,29.82,WNW,296,3.2,6.9,69,0.00,CLR,,0.01,65.5,WeatherDisplay:10.37,2013-11-10 20:23:00,
2013-11-10 15:28:00,46.9,36.9,29.81,WNW,298,3.8,6.9,68,0.00,CLR,,0.01,71.2,WeatherDisplay:10.37,2013-11-10 20:28:00,
2013-11-10 15:33:00,47.2,36.0,29.81,WNW,295,11.4,17.0,65,0.00,CLR,,0.01,85.9,WeatherDisplay:10.37,2013-11-10 20:33:00,
2013-11-10 15:38:00,47.5,33.9,29.82,WNW,300,7.6,13.0,59,0.00,CLR,,0.01,125.4,WeatherDisplay:10.37,2013-11-10 20:38:00,
2013-11-10 15:43:00,47.8,34.6,29.81,WNW,292,13.6,19.6,60,0.00,CLR,,0.01,131.1,WeatherDisplay:10.37,2013-11-10 20:43:00,
2013-11-10 15:48:00,48.1,34.9,29.82,WNW,284,13.4,19.6,60,0.00,CLR,,0.01,131.1,WeatherDisplay:10.37,2013-11-10 20:48:00,
2013-11-10 15:53:00,48.1,35.7,29.82,West,275,11.9,15.0,62,0.00,CLR,,0.01,89.3,WeatherDisplay:10.37,2013-11-10 20:53:00,
2013-11-10 15:58:00,47.9,35.5,29.83,NW,307,11.8,14.0,62,0.00,CLR,,0.01,78.0,WeatherDisplay:10.37,2013-11-10 20:58:00,
2013-11-10 16:03:00,47.6,35.2,29.83,West,280,11.0,16.1,62,0.00,CLR,,0.01,44.1,WeatherDisplay:10.37,2013-11-10 21:03:00,
2013-11-10 16:09:00,47.3,34.9,29.83,West,279,10.5,12.7,62,0.00,CLR,,0.01,39.5,WeatherDisplay:10.37,2013-11-10 21:09:00,
2013-11-10 16:14:00,47.0,35.0,29.83,WNW,300,6.0,11.5,63,0.00,CLR,,0.01,53.1,WeatherDisplay:10.37,2013-11-10 21:14:00,
2013-11-10 16:19:00,46.8,34.5,29.83,West,281,7.2,8.1,62,0.00,CLR,,0.01,33.9,WeatherDisplay:10.37,2013-11-10 21:19:00,
2013-11-10 16:24:00,46.6,34.7,29.83,West,281,9.9,12.7,63,0.00,CLR,,0.01,26.0,WeatherDisplay:10.37,2013-11-10 21:24:00,
2013-11-10 16:29:00,46.3,34.4,29.83,WNW,301,6.6,11.5,63,0.00,CLR,,0.01,18.1,WeatherDisplay:10.37,2013-11-10 21:29:00,
2013-11-10 16:34:00,46.1,34.2,29.84,WNW,293,3.5,3.5,63,0.00,CLR,,0.01,10.2,WeatherDisplay:10.37,2013-11-10 21:34:00,
2013-11-10 16:39:00,45.9,34.0,29.84,WNW,294,4.4,8.1,63,0.00,CLR,,0.01,0.0,WeatherDisplay:10.37,2013-11-10 21:39:00,
2013-11-10 16:44:00,45.7,33.8,29.84,WNW,294,3.0,3.5,63,0.00,CLR,,0.01,0.0,WeatherDisplay:10.37,2013-11-10 21:44:00,
2013-11-10 16:49:00,45.5,34.0,29.84,West,265,3.8,4.6,64,0.00,CLR,,0.01,0.0,WeatherDisplay:10.37,2013-11-10 21:49:00,
2013-11-10 16:54:00,45.4,33.9,29.84,West,276,6.6,9.0,64,0.00,CLR,,0.01,0.0,WeatherDisplay:10.37,2013-11-10 21:54:00,
2013-11-10 16:59:00,45.4,33.9,29.84,West,276,4.7,6.9,64,0.00,CLR,,0.01,0.0,WeatherDisplay:10.37,2013-11-10 21:59:00,
2013-11-10 17:04:00,45.3,33.8,29.84,WNW,286,1.6,3.5,64,0.00,CLR,,0.01,0.0,WeatherDisplay:10.37,2013-11-10 22:04:00,
2013-11-10 17:09:00,45.3,33.8,29.84,WNW,284,3.0,4.0,64,0.00,CLR,,0.01,0.0,WeatherDisplay:10.37,2013-11-10 22:09:00,
2013-11-10 17:14:00,45.2,33.7,29.85,WNW,284,1.2,3.0,64,0.00,CLR,,0.01,0.0,WeatherDisplay:10.37,2013-11-10 22:14:00,
2013-11-10 17:19:00,45.1,33.6,29.84,West,269,5.0,7.0,64,0.00,CLR,,0.01,0.0,WeatherDisplay:10.37,2013-11-10 22:19:00,
2013-11-10 17:24:00,45.2,33.7,29.85,West,279,5.7,9.2,64,0.00,CLR,,0.01,0.0,WeatherDisplay:10.37,2013-11-10 22:24:00,
2013-11-10 17:29:00,45.2,34.1,29.85,West,279,5.4,7.0,65,0.00,CLR,,0.01,0.0,WeatherDisplay:10.37,2013-11-10 22:29:00,
2013-11-10 17:34:00,45.2,33.7,29.85,WNW,287,3.9,4.6,64,0.00,CLR,,0.01,0.0,WeatherDisplay:10.37,2013-11-10 22:34:00,
2013-11-10 17:39:00,45.2,34.1,29.85,West,279,4.3,6.9,65,0.00,CLR,,0.01,0.0,WeatherDisplay:10.37,2013-11-10 22:39:00,
2013-11-10 17:44:00,45.2,34.1,29.86,West,278,5.5,6.9,65,0.00,CLR,,0.01,0.0,WeatherDisplay:10.37,2013-11-10 22:44:00,
2013-11-10 17:49:00,45.2,34.1,29.86,West,281,6.4,8.1,65,0.00,CLR,,0.01,0.0,WeatherDisplay:10.37,2013-11-10 22:49:00,
2013-11-10 17:54:00,45.1,34.4,29.86,West,269,6.8,9.2,66,0.00,CLR,,0.01,0.0,WeatherDisplay:10.37,2013-11-10 22:54:00,
2013-11-10 17:59:00,45.2,34.5,29.86,West,274,4.6,6.0,66,0.00,CLR,,0.01,0.0,WeatherDisplay:10.37,2013-11-10 22:59:00,
2013-11-10 18:04:00,45.1,34.0,29.86,West,279,9.5,11.5,65,0.00,CLR,,0.01,0.0,WeatherDisplay:10.37,2013-11-10 23:04:00,
2013-11-10 18:09:00,45.2,34.5,29.87,WNW,284,9.2,11.5,66,0.00,CLR,,0.01,0.0,WeatherDisplay:10.37,2013-11-10 23:09:00,
2013-11-10 18:14:00,45.1,34.4,29.87,West,266,9.9,13.8,66,0.00,CLR,,0.01,0.0,WeatherDisplay:10.37,2013-11-10 23:14:00,
2013-11-10 18:19:00,45.0,34.3,29.87,West,265,9.8,13.8,66,0.00,CLR,,0.01,0.0,WeatherDisplay:10.37,2013-11-10 23:19:00,
2013-11-10 18:24:00,44.8,34.5,29.87,West,276,7.9,11.5,67,0.00,CLR,,0.01,0.0,WeatherDisplay:10.37,2013-11-10 23:24:00,
2013-11-10 18:29:00,44.6,34.3,29.87,West,268,4.6,6.9,67,0.00,CLR,,0.01,0.0,WeatherDisplay:10.37,2013-11-10 23:29:00,
2013-11-10 18:34:00,44.3,34.0,29.87,WNW,288,5.6,6.9,67,0.00,CLR,,0.01,0.0,WeatherDisplay:10.37,2013-11-10 23:34:00,
2013-11-10 18:39:00,44.2,34.3,29.87,West,266,7.0,10.4,68,0.00,CLR,,0.01,0.0,WeatherDisplay:10.37,2013-11-10 23:39:00,
2013-11-10 18:44:00,44.2,34.3,29.87,West,269,8.0,9.2,68,0.00,CLR,,0.01,0.0,WeatherDisplay:10.37,2013-11-10 23:44:00,
2013-11-10 18:49:00,44.1,34.2,29.88,West,269,5.7,8.1,68,0.00,CLR,,0.01,0.0,WeatherDisplay:10.37,2013-11-10 23:49:00,
2013-11-10 18:54:00,44.0,34.1,29.88,West,267,7.7,9.2,68,0.00,CLR,,0.01,0.0,WeatherDisplay:10.37,2013-11-10 23:54:00,
2013-11-10 18:59:00,44.0,34.1,29.88,WNW,283,6.2,7.0,68,0.00,CLR,,0.01,0.0,WeatherDisplay:10.37,2013-11-10 23:59:00,
2013-11-10 19:04:00,44.0,34.1,29.88,West,265,9.1,13.8,68,0.00,CLR,,0.01,0.0,WeatherDisplay:10.37,2013-11-11 00:04:00,
2013-11-10 19:09:00,44.1,34.2,29.88,WNW,286,7.2,9.2,68,0.00,CLR,,0.01,0.0,WeatherDisplay:10.37,2013-11-11 00:09:00,
2013-11-10 19:14:00,44.1,34.6,29.88,West,279,6.9,9.2,69,0.00,CLR,,0.01,0.0,WeatherDisplay:10.37,2013-11-11 00:14:00,
2013-11-10 19:19:00,43.9,35.1,29.88,WNW,288,13.2,18.4,71,0.00,CLR,,0.01,0.0,WeatherDisplay:10.37,2013-11-11 00:19:00,
2013-11-10 19:24:00,43.6,36.2,29.89,West,271,13.3,15.0,75,0.01,RA,,0.02,0.0,WeatherDisplay:10.37,2013-11-11 00:24:00,
2013-11-10 19:29:00,42.9,36.2,29.90,WNW,302,3.8,6.9,77,0.01,RA,,0.02,0.0,WeatherDisplay:10.37,2013-11-11 00:29:00,
2013-11-10 19:34:00,41.9,36.5,29.90,NW,304,6.7,6.9,81,0.01,,,0.02,0.0,WeatherDisplay:10.37,2013-11-11 00:34:00,
2013-11-10 19:39:00,41.3,36.2,29.90,West,279,11.2,15.0,82,0.01,CLR,,0.02,0.0,WeatherDisplay:10.37,2013-11-11 00:39:00,
2013-11-10 19:44:00,41.1,36.0,29.90,WNW,298,11.1,16.1,82,0.01,CLR,,0.02,0.0,WeatherDisplay:10.37,2013-11-11 00:44:00,
2013-11-10 19:49:00,41.1,36.3,29.90,WNW,301,5.7,11.5,83,0.01,CLR,,0.02,0.0,WeatherDisplay:10.37,2013-11-11 00:49:00,
2013-11-10 19:54:00,40.9,36.4,29.90,WNW,298,8.3,11.5,84,0.02,RA,,0.03,0.0,WeatherDisplay:10.37,2013-11-11 00:54:00,
2013-11-10 19:59:00,40.7,36.2,29.90,WNW,298,6.0,9.2,84,0.02,RA,,0.03,0.0,WeatherDisplay:10.37,2013-11-11 00:59:00,
2013-11-10 20:04:00,40.6,36.1,29.90,West,280,7.3,10.0,84,0.02,CLR,,0.03,0.0,WeatherDisplay:10.37,2013-11-11 01:04:00,
2013-11-10 20:09:00,40.6,35.8,29.91,WNW,290,8.7,12.0,83,0.02,CLR,,0.03,0.0,WeatherDisplay:10.37,2013-11-11 01:09:00,
2013-11-10 20:14:00,40.6,35.8,29.90,WNW,298,12.3,18.4,83,0.02,CLR,,0.03,0.0,WeatherDisplay:10.37,2013-11-11 01:14:00,
2013-11-10 20:19:00,40.6,35.5,29.90,WNW,293,10.6,11.5,82,0.02,CLR,,0.03,0.0,WeatherDisplay:10.37,2013-11-11 01:19:00,
2013-11-10 20:24:00,40.7,35.6,29.91,WNW,294,7.3,12.7,82,0.01,CLR,,0.03,0.0,WeatherDisplay:10.37,2013-11-11 01:24:00,
2013-11-10 20:29:00,40.8,35.4,29.91,NW,305,12.3,15.0,81,0.01,CLR,,0.03,0.0,WeatherDisplay:10.37,2013-11-11 01:29:00,
2013-11-10 20:34:00,40.9,35.8,29.91,West,279,11.5,17.3,82,0.01,CLR,,0.03,0.0,WeatherDisplay:10.37,2013-11-11 01:34:00,
2013-11-10 20:39:00,40.7,35.9,29.92,WNW,286,11.6,16.1,83,0.01,CLR,,0.03,0.0,WeatherDisplay:10.37,2013-11-11 01:39:00,
2013-11-10 20:44:00,40.4,35.6,29.92,WNW,287,15.8,15.8,83,0.01,CLR,,0.03,0.0,WeatherDisplay:10.37,2013-11-11 01:44:00,
2013-11-10 20:49:00,40.0,35.6,29.93,West,277,13.5,20.7,84,0.01,CLR,,0.03,0.0,WeatherDisplay:10.37,2013-11-11 01:49:00,
2013-11-10 20:54:00,39.7,35.3,29.94,West,280,10.7,12.7,84,0.00,CLR,,0.03,0.0,WeatherDisplay:10.37,2013-11-11 01:54:00,
2013-11-10 21:00:00,39.6,35.5,29.94,WNW,290,10.4,10.4,85,0.00,CLR,,0.03,0.0,WeatherDisplay:10.37,2013-11-11 02:00:00,
2013-11-10 21:05:00,39.4,35.3,29.94,WNW,294,7.4,16.1,85,0.00,CLR,,0.03,0.0,WeatherDisplay:10.37,2013-11-11 02:05:00,
2013-11-10 21:10:00,39.3,35.5,29.95,WNW,296,9.9,11.5,86,0.00,CLR,,0.03,0.0,WeatherDisplay:10.37,2013-11-11 02:10:00,
2013-11-10 21:15:00,39.1,35.3,29.95,WNW,288,8.7,13.8,86,0.00,CLR,,0.03,0.0,WeatherDisplay:10.37,2013-11-11 02:15:00,
2013-11-10 21:20:00,39.0,35.5,29.95,WNW,291,8.8,11.5,87,0.00,CLR,,0.03,0.0,WeatherDisplay:10.37,2013-11-11 02:20:00,
2013-11-10 21:25:00,38.8,35.0,29.95,WNW,301,10.0,12.0,86,0.00,CLR,,0.03,0.0,WeatherDisplay:10.37,2013-11-11 02:25:00,
2013-11-10 21:30:00,38.8,34.7,29.95,WNW,298,13.7,19.6,85,0.00,CLR,,0.03,0.0,WeatherDisplay:10.37,2013-11-11 02:30:00,
2013-11-10 21:35:00,38.8,34.7,29.95,WNW,283,8.7,13.8,85,0.00,CLR,,0.03,0.0,WeatherDisplay:10.37,2013-11-11 02:35:00,
2013-11-10 21:40:00,38.8,34.4,29.95,WNW,292,12.1,12.1,84,0.00,CLR,,0.03,0.0,WeatherDisplay:10.37,2013-11-11 02:40:00,
2013-11-10 21:45:00,38.8,34.1,29.95,West,271,9.5,11.5,83,0.00,CLR,,0.03,0.0,WeatherDisplay:10.37,2013-11-11 02:45:00,
2013-11-10 21:50:00,38.8,33.8,29.95,WNW,283,7.2,10.4,82,0.00,CLR,,0.03,0.0,WeatherDisplay:10.37,2013-11-11 02:50:00,
2013-11-10 21:55:00,38.8,33.5,29.95,WNW,284,10.6,18.4,81,0.00,CLR,,0.03,0.0,WeatherDisplay:10.37,2013-11-11 02:55:00,
2013-11-10 22:00:00,38.8,33.2,29.96,West,267,6.1,11.5,80,0.00,CLR,,0.03,0.0,WeatherDisplay:10.37,2013-11-11 03:00:00,
2013-11-10 22:05:00,38.9,33.3,29.96,WNW,301,8.2,12.7,80,0.00,CLR,,0.03,0.0,WeatherDisplay:10.37,2013-11-11 03:05:00,
2013-11-10 22:10:00,38.9,32.9,29.96,WNW,289,8.9,12.7,79,0.00,CLR,,0.03,0.0,WeatherDisplay:10.37,2013-11-11 03:10:00,
2013-11-10 22:15:00,38.9,32.6,29.96,WNW,287,7.4,10.4,78,0.00,CLR,,0.03,0.0,WeatherDisplay:10.37,2013-11-11 03:15:00,
2013-11-10 22:20:00,38.9,32.9,29.97,WNW,285,6.2,8.1,79,0.00,CLR,,0.03,0.0,WeatherDisplay:10.37,2013-11-11 03:20:00,
2013-11-10 22:25:00,38.9,32.9,29.97,WNW,295,7.1,11.5,79,0.00,CLR,,0.03,0.0,WeatherDisplay:10.37,2013-11-11 03:25:00,
2013-11-10 22:30:00,38.8,32.5,29.98,WNW,294,7.0,11.5,78,0.00,CLR,,0.03,0.0,WeatherDisplay:10.37,2013-11-11 03:30:00,
2013-11-10 22:35:00,38.8,32.5,29.98,WNW,283,5.5,8.1,78,0.00,CLR,,0.03,0.0,WeatherDisplay:10.37,2013-11-11 03:35:00,
2013-11-10 22:40:00,38.8,32.5,29.97,WNW,282,7.1,10.4,78,0.00,CLR,,0.03,0.0,WeatherDisplay:10.37,2013-11-11 03:40:00,
2013-11-10 22:45:00,38.7,32.7,29.98,WNW,286,12.7,16.1,79,0.00,CLR,,0.03,0.0,WeatherDisplay:10.37,2013-11-11 03:45:00,
2013-11-10 22:50:00,38.7,32.4,29.98,NW,308,6.5,10.4,78,0.00,CLR,,0.03,0.0,WeatherDisplay:10.37,2013-11-11 03:50:00,
2013-11-10 22:55:00,38.7,32.4,29.98,WNW,290,7.3,11.5,78,0.00,CLR,,0.03,0.0,WeatherDisplay:10.37,2013-11-11 03:55:00,
2013-11-10 23:00:00,38.8,32.2,29.98,WNW,294,4.5,6.0,77,0.00,CLR,,0.03,0.0,WeatherDisplay:10.37,2013-11-11 04:00:00,
2013-11-10 23:05:00,38.7,32.1,29.99,NW,310,6.3,9.2,77,0.00,CLR,,0.03,0.0,WeatherDisplay:10.37,2013-11-11 04:05:00,
2013-11-10 23:10:00,38.8,32.2,29.99,WNW,302,6.5,10.4,77,0.00,CLR,,0.03,0.0,WeatherDisplay:10.37,2013-11-11 04:10:00,
2013-11-10 23:15:00,38.7,32.1,29.99,WNW,298,7.1,11.5,77,0.00,CLR,,0.03,0.0,WeatherDisplay:10.37,2013-11-11 04:15:00,
2013-11-10 23:20:00,38.7,32.4,29.99,WNW,287,6.5,8.1,78,0.00,CLR,,0.03,0.0,WeatherDisplay:10.37,2013-11-11 04:20:00,
2013-11-10 23:25:00,38.5,32.6,29.99,West,281,7.6,11.5,79,0.00,CLR,,0.03,0.0,WeatherDisplay:10.37,2013-11-11 04:25:00,
2013-11-10 23:30:00,38.3,32.4,30.00,WNW,297,6.7,10.4,79,0.00,CLR,,0.03,0.0,WeatherDisplay:10.37,2013-11-11 04:30:00,
2013-11-10 23:35:00,38.2,31.9,30.01,WNW,300,4.7,8.1,78,0.00,CLR,,0.03,0.0,WeatherDisplay:10.37,2013-11-11 04:35:00,
2013-11-10 23:40:00,38.0,32.7,30.01,WNW,295,7.0,8.1,81,0.00,CLR,,0.03,0.0,WeatherDisplay:10.37,2013-11-11 04:40:00,
2013-11-10 23:45:00,37.7,32.4,30.01,NW,311,5.3,8.1,81,0.01,RA,,0.04,0.0,WeatherDisplay:10.37,2013-11-11 04:45:00,
2013-11-10 23:50:00,37.3,32.3,30.01,NW,315,6.5,9.2,82,0.01,RA,,0.04,0.0,WeatherDisplay:10.37,2013-11-11 04:50:00,
2013-11-10 23:55:00,37.2,32.2,30.01,WNW,294,7.1,11.5,82,0.01,,,0.04,0.0,WeatherDisplay:10.37,2013-11-11 04:55:00,